Погода в Чанданагаре

Индия     17°29′42″N   78°19′32″E
темп.,
°C
ветер,
м/с
пор.,
м/с
влажн.,
%
обл.,
%
осадки,
мм/ч
давл.,
гПа
погр.,
м
4 марта, чт
чт423:30+22ююв33200 0.0 101338
02:30+19ссв22240 0.0 101133
05:30+20вюв23240 0.0 101133
08:30+26юв24220 0.0 1014279
11:30+33вюв43110 0.0 10132581
14:30+35вюв3390 0.0 10093164
17:30+34вюв44100 0.0 10081618
20:30+24вюв23200 0.0 101262
5 марта, пт
пт523:30+23ююв34260 0.0 101359
02:30+20юз34380 0.0 101253
05:30+18юз11462 0.0 101241
08:30+25ююз35270 0.0 1015251
11:30+34ююв23130 0.0 10142450
14:30+36всв2390 0.0 10103176
17:30+34ссв33100 0.0 10081371
20:30+26юв45170 0.0 101183
6 марта, сб
сб623:30+23юв23220 0.0 101248
02:30+21ююз34290 0.0 101140
05:30+21ююз45320 0.0 101171
08:30+28юз35210 0.0 1014286
11:30+35зюз33110 0.0 10132717
14:30+37с2290 0.0 10093390
17:30+35ссв33100 0.0 10071504
20:30+26св12160 0.0 101036
7 марта, вс
вс723:30+24юв23190 0.0 101155
02:30+22ююз22270 0.0 101033
05:30+21ю22310 0.0 101029
08:30+28ююз35230 0.0 1013281
11:30+35ю44130 0.0 10122559
14:30+37вюв43100 0.0 10073386
17:30+35вюв22110 0.0 1006990
20:30+27юв35180 0.0 1009103
8 марта, пн
пн823:30+25ю58280 0.0 1010135
02:30+23ю44340 0.0 100975
05:30+22ю34310 0.0 101054
08:30+28юз35210 0.0 1013359
11:30+35ююв55130 0.0 10121976
14:30+37вюв53110 0.0 10083822
17:30+35вюв64140 0.0 10082673
20:30+27юв46270 0.0 1010111